Year,Month,Day,Hour,Minute,Value (Times are PST for temperature in C)
2012,10,25,00,00,-0.50
2012,10,25,00,01,-0.50
2012,10,25,00,02,-0.50
2012,10,25,00,03,-0.50
2012,10,25,00,04,-0.50
2012,10,25,00,05,-0.50
2012,10,25,00,06,-0.50
2012,10,25,00,07,-0.50
2012,10,25,00,08,-0.50
2012,10,25,00,09,-0.50
2012,10,25,00,10,-0.50
2012,10,25,00,11,-0.60
2012,10,25,00,12,-0.60
2012,10,25,00,13,-0.60
2012,10,25,00,14,-0.70
2012,10,25,00,15,-0.70
2012,10,25,00,16,-0.70
2012,10,25,00,17,-0.70
2012,10,25,00,18,-0.70
2012,10,25,00,19,-0.70
2012,10,25,00,20,-0.70
2012,10,25,00,21,-0.70
2012,10,25,00,22,-0.70
2012,10,25,00,23,-0.70
2012,10,25,00,24,-0.70
2012,10,25,00,25,-0.80
2012,10,25,00,26,-0.80
2012,10,25,00,27,-0.80
2012,10,25,00,28,-0.80
2012,10,25,00,29,-0.80
2012,10,25,00,30,-0.80
2012,10,25,00,31,-0.80
2012,10,25,00,32,-0.90
2012,10,25,00,33,-0.90
2012,10,25,00,34,-1.00
2012,10,25,00,35,-1.00
2012,10,25,00,36,-1.00
2012,10,25,00,37,-1.00
2012,10,25,00,38,-1.00
2012,10,25,00,39,-1.00
2012,10,25,00,40,-1.10
2012,10,25,00,41,-1.10
2012,10,25,00,42,-1.10
2012,10,25,00,43,-1.20
2012,10,25,00,44,-1.20
2012,10,25,00,45,-1.20
2012,10,25,00,46,-1.20
2012,10,25,00,47,-1.20
2012,10,25,00,48,-1.30
2012,10,25,00,49,-1.30
2012,10,25,00,50,-1.30
2012,10,25,00,51,-1.20
2012,10,25,00,52,-1.20
2012,10,25,00,53,-1.20
2012,10,25,00,54,-1.20
2012,10,25,00,55,-1.20
2012,10,25,00,56,-1.20
2012,10,25,00,57,-1.20
2012,10,25,00,58,-1.20
2012,10,25,00,59,-1.20
2012,10,25,01,00,-1.20
2012,10,25,01,01,-1.30
2012,10,25,01,02,-1.30
2012,10,25,01,03,-1.30
2012,10,25,01,04,-1.30
2012,10,25,01,05,-1.40
2012,10,25,01,06,-1.40
2012,10,25,01,07,-1.40
2012,10,25,01,08,-1.40
2012,10,25,01,09,-1.40
2012,10,25,01,10,-1.50
2012,10,25,01,11,-1.50
2012,10,25,01,12,-1.50
2012,10,25,01,13,-1.60
2012,10,25,01,14,-1.60
2012,10,25,01,15,-1.60
2012,10,25,01,16,-1.60
2012,10,25,01,17,-1.60
2012,10,25,01,18,-1.70
2012,10,25,01,19,-1.70
2012,10,25,01,20,-1.70
2012,10,25,01,21,-1.70
2012,10,25,01,22,-1.70
2012,10,25,01,23,-1.70
2012,10,25,01,24,-1.70
2012,10,25,01,25,-1.80
2012,10,25,01,26,-1.80
2012,10,25,01,27,-1.80
2012,10,25,01,28,-1.80
2012,10,25,01,29,-1.80
2012,10,25,01,30,-1.70
2012,10,25,01,31,-1.70
2012,10,25,01,32,-1.70
2012,10,25,01,33,-1.70
2012,10,25,01,34,-1.70
2012,10,25,01,35,-1.70
2012,10,25,01,36,-1.70
2012,10,25,01,37,-1.70
2012,10,25,01,38,-1.70
2012,10,25,01,39,-1.80
2012,10,25,01,40,-1.80
2012,10,25,01,41,-1.80
2012,10,25,01,42,-1.80
2012,10,25,01,43,-1.90
2012,10,25,01,44,-1.90
2012,10,25,01,45,-1.90
2012,10,25,01,46,-1.90
2012,10,25,01,47,-1.90
2012,10,25,01,48,-2.00
2012,10,25,01,49,-2.00
2012,10,25,01,50,-2.00
2012,10,25,01,51,-2.00
2012,10,25,01,52,-2.10
2012,10,25,01,53,-2.10
2012,10,25,01,54,-2.10
2012,10,25,01,55,-2.10
2012,10,25,01,56,-2.20
2012,10,25,01,57,-2.20
2012,10,25,01,58,-2.20
2012,10,25,01,59,-2.20
2012,10,25,02,00,-2.20
2012,10,25,02,01,-2.20
2012,10,25,02,02,-2.30
2012,10,25,02,03,-2.30
2012,10,25,02,04,-2.30
2012,10,25,02,05,-2.30
2012,10,25,02,06,-2.30
2012,10,25,02,07,-2.40
2012,10,25,02,08,-2.40
2012,10,25,02,09,-2.40
2012,10,25,02,10,-2.50
2012,10,25,02,11,-2.50
2012,10,25,02,12,-2.50
2012,10,25,02,13,-2.50
2012,10,25,02,14,-2.50
2012,10,25,02,15,-2.50
2012,10,25,02,16,-2.60
2012,10,25,02,17,-2.60
2012,10,25,02,18,-2.50
2012,10,25,02,19,-2.50
2012,10,25,02,20,-2.50
2012,10,25,02,21,-2.50
2012,10,25,02,22,-2.50
2012,10,25,02,23,-2.40
2012,10,25,02,24,-2.40
2012,10,25,02,25,-2.40
2012,10,25,02,26,-2.40
2012,10,25,02,27,-2.30
2012,10,25,02,28,-2.30
2012,10,25,02,29,-2.30
2012,10,25,02,30,-2.30
2012,10,25,02,31,-2.30
2012,10,25,02,32,-2.30
2012,10,25,02,33,-2.30
2012,10,25,02,34,-2.30
2012,10,25,02,35,-2.30
2012,10,25,02,36,-2.30
2012,10,25,02,37,-2.30
2012,10,25,02,38,-2.30
2012,10,25,02,39,-2.30
2012,10,25,02,40,-2.30
2012,10,25,02,41,-2.30
2012,10,25,02,42,-2.30
2012,10,25,02,43,-2.30
2012,10,25,02,44,-2.30
2012,10,25,02,45,-2.30
2012,10,25,02,46,-2.30
2012,10,25,02,47,-2.20
2012,10,25,02,48,-2.20
2012,10,25,02,49,-2.20
2012,10,25,02,50,-2.20
2012,10,25,02,51,-2.20
2012,10,25,02,52,-2.20
2012,10,25,02,53,-2.20
2012,10,25,02,54,-2.20
2012,10,25,02,55,-2.10
2012,10,25,02,56,-2.10
2012,10,25,02,57,-2.10
2012,10,25,02,58,-2.00
2012,10,25,02,59,-2.00
2012,10,25,03,00,-2.00
2012,10,25,03,01,-2.00
2012,10,25,03,02,-1.90
2012,10,25,03,03,-1.90
2012,10,25,03,04,-1.90
2012,10,25,03,05,-1.90
2012,10,25,03,06,-1.90
2012,10,25,03,07,-1.90
2012,10,25,03,08,-1.90
2012,10,25,03,09,-1.90
2012,10,25,03,10,-1.90
2012,10,25,03,11,-1.90
2012,10,25,03,12,-1.90
2012,10,25,03,13,-1.90
2012,10,25,03,14,-1.90
2012,10,25,03,15,-1.90
2012,10,25,03,16,-1.90
2012,10,25,03,17,-1.90
2012,10,25,03,18,-1.90
2012,10,25,03,19,-1.90
2012,10,25,03,20,-1.80
2012,10,25,03,21,-1.80
2012,10,25,03,22,-1.80
2012,10,25,03,23,-1.80
2012,10,25,03,24,-1.80
2012,10,25,03,25,-1.80
2012,10,25,03,26,-1.80
2012,10,25,03,27,-1.80
2012,10,25,03,28,-1.80
2012,10,25,03,29,-1.80
2012,10,25,03,30,-1.70
2012,10,25,03,31,-1.70
2012,10,25,03,32,-1.70
2012,10,25,03,33,-1.70
2012,10,25,03,34,-1.70
2012,10,25,03,35,-1.70
2012,10,25,03,36,-1.70
2012,10,25,03,37,-1.70
2012,10,25,03,38,-1.70
2012,10,25,03,39,-1.70
2012,10,25,03,40,-1.70
2012,10,25,03,41,-1.70
2012,10,25,03,42,-1.80
2012,10,25,03,43,-1.80
2012,10,25,03,44,-1.80
2012,10,25,03,45,-1.80
2012,10,25,03,46,-1.80
2012,10,25,03,47,-1.80
2012,10,25,03,48,-1.80
2012,10,25,03,49,-1.80
2012,10,25,03,50,-1.80
2012,10,25,03,51,-1.80
2012,10,25,03,52,-1.90
2012,10,25,03,53,-1.90
2012,10,25,03,54,-1.90
2012,10,25,03,55,-1.90
2012,10,25,03,56,-1.90
2012,10,25,03,57,-2.00
2012,10,25,03,58,-2.00
2012,10,25,03,59,-2.00
2012,10,25,04,00,-2.00
2012,10,25,04,01,-2.00
2012,10,25,04,02,-2.00
2012,10,25,04,03,-2.00
2012,10,25,04,04,-2.00
2012,10,25,04,05,-2.00
2012,10,25,04,06,-2.10
2012,10,25,04,07,-2.10
2012,10,25,04,08,-2.10
2012,10,25,04,09,-2.10
2012,10,25,04,10,-2.10
2012,10,25,04,11,-2.10
2012,10,25,04,12,-2.10
2012,10,25,04,13,-2.20
2012,10,25,04,14,-2.20
2012,10,25,04,15,-2.20
2012,10,25,04,16,-2.20
2012,10,25,04,17,-2.20
2012,10,25,04,18,-2.20
2012,10,25,04,19,-2.20
2012,10,25,04,20,-2.20
2012,10,25,04,21,-2.20
2012,10,25,04,22,-2.20
2012,10,25,04,23,-2.20
2012,10,25,04,24,-2.10
2012,10,25,04,25,-2.10
2012,10,25,04,26,-2.10
2012,10,25,04,27,-2.10
2012,10,25,04,28,-2.10
2012,10,25,04,29,-2.10
2012,10,25,04,30,-2.10
2012,10,25,04,31,-2.10
2012,10,25,04,32,-2.10
2012,10,25,04,33,-2.10
2012,10,25,04,34,-2.10
2012,10,25,04,35,-2.20
2012,10,25,04,36,-2.20
2012,10,25,04,37,-2.20
2012,10,25,04,38,-2.20
2012,10,25,04,39,-2.20
2012,10,25,04,40,-2.20
2012,10,25,04,41,-2.20
2012,10,25,04,42,-2.30
2012,10,25,04,43,-2.30
2012,10,25,04,44,-2.30
2012,10,25,04,45,-2.30
2012,10,25,04,46,-2.30
2012,10,25,04,47,-2.40
2012,10,25,04,48,-2.40
2012,10,25,04,49,-2.50
2012,10,25,04,50,-2.50
2012,10,25,04,51,-2.50
2012,10,25,04,52,-2.50
2012,10,25,04,53,-2.50
2012,10,25,04,54,-2.50
2012,10,25,04,55,-2.50
2012,10,25,04,56,-2.50
2012,10,25,04,57,-2.60
2012,10,25,04,58,-2.50
2012,10,25,04,59,-2.50
2012,10,25,05,00,-2.50
2012,10,25,05,01,-2.50
2012,10,25,05,02,-2.50
2012,10,25,05,03,-2.50
2012,10,25,05,04,-2.50
2012,10,25,05,05,-2.50
2012,10,25,05,06,-2.50
2012,10,25,05,07,-2.50
2012,10,25,05,08,-2.40
2012,10,25,05,09,-2.30
2012,10,25,05,10,-2.30
2012,10,25,05,11,-2.30
2012,10,25,05,12,-2.20
2012,10,25,05,13,-2.20
2012,10,25,05,14,-2.20
2012,10,25,05,15,-2.20
2012,10,25,05,16,-2.20
2012,10,25,05,17,-2.20
2012,10,25,05,18,-2.20
2012,10,25,05,19,-2.20
2012,10,25,05,20,-2.20
2012,10,25,05,21,-2.20
2012,10,25,05,22,-2.20
2012,10,25,05,23,-2.20
2012,10,25,05,24,-2.20
2012,10,25,05,25,-2.20
2012,10,25,05,26,-2.20
2012,10,25,05,27,-2.20
2012,10,25,05,28,-2.20
2012,10,25,05,29,-2.20
2012,10,25,05,30,-2.20
2012,10,25,05,31,-2.20
2012,10,25,05,32,-2.20
2012,10,25,05,33,-2.30
2012,10,25,05,34,-2.20
2012,10,25,05,35,-2.30
2012,10,25,05,36,-2.30
2012,10,25,05,37,-2.30
2012,10,25,05,38,-2.30
2012,10,25,05,39,-2.30
2012,10,25,05,40,-2.30
2012,10,25,05,41,-2.30
2012,10,25,05,42,-2.30
2012,10,25,05,43,-2.30
2012,10,25,05,44,-2.30
2012,10,25,05,45,-2.30
2012,10,25,05,46,-2.30
2012,10,25,05,47,-2.30
2012,10,25,05,48,-2.30
2012,10,25,05,49,-2.20
2012,10,25,05,50,-2.20
2012,10,25,05,51,-2.20
2012,10,25,05,52,-2.20
2012,10,25,05,53,-2.20
2012,10,25,05,54,-2.20
2012,10,25,05,55,-2.20
2012,10,25,05,56,-2.20
2012,10,25,05,57,-2.20
2012,10,25,05,58,-2.30
2012,10,25,05,59,-2.30
2012,10,25,06,00,-2.30
2012,10,25,06,01,-2.30
2012,10,25,06,02,-2.30
2012,10,25,06,03,-2.30
2012,10,25,06,04,-2.30
2012,10,25,06,05,-2.30
2012,10,25,06,06,-2.30
2012,10,25,06,07,-2.30
2012,10,25,06,08,-2.30
2012,10,25,06,09,-2.30
2012,10,25,06,10,-2.30
2012,10,25,06,11,-2.40
2012,10,25,06,12,-2.40
2012,10,25,06,13,-2.40
2012,10,25,06,14,-2.50
2012,10,25,06,15,-2.50
2012,10,25,06,16,-2.50
2012,10,25,06,17,-2.60
2012,10,25,06,18,-2.60
2012,10,25,06,19,-2.60
2012,10,25,06,20,-2.70
2012,10,25,06,21,-2.70
2012,10,25,06,22,-2.70
2012,10,25,06,23,-2.70
2012,10,25,06,24,-2.70
2012,10,25,06,25,-2.70
2012,10,25,06,26,-2.80
2012,10,25,06,27,-2.70
2012,10,25,06,28,-2.70
2012,10,25,06,29,-2.70
2012,10,25,06,30,-2.70
2012,10,25,06,31,-2.70
2012,10,25,06,32,-2.70
2012,10,25,06,33,-2.70
2012,10,25,06,34,-2.70
2012,10,25,06,35,-2.70
2012,10,25,06,36,-2.70
2012,10,25,06,37,-2.70
2012,10,25,06,38,-2.70
2012,10,25,06,39,-2.70
2012,10,25,06,40,-2.70
2012,10,25,06,41,-2.70
2012,10,25,06,42,-2.70
2012,10,25,06,43,-2.80
2012,10,25,06,44,-2.80
2012,10,25,06,45,-2.80
2012,10,25,06,46,-2.80
2012,10,25,06,47,-2.80
2012,10,25,06,48,-2.90
2012,10,25,06,49,-2.90
2012,10,25,06,50,-2.90
2012,10,25,06,51,-2.90
2012,10,25,06,52,-2.90
2012,10,25,06,53,-2.90
2012,10,25,06,54,-2.80
2012,10,25,06,55,-2.80
2012,10,25,06,56,-2.80
2012,10,25,06,57,-2.80
2012,10,25,06,58,-2.80
2012,10,25,06,59,-2.80
2012,10,25,07,00,-2.80
2012,10,25,07,01,-2.80
2012,10,25,07,02,-2.80
2012,10,25,07,03,-2.80
2012,10,25,07,04,-2.80
2012,10,25,07,05,-2.80
2012,10,25,07,06,-2.80
2012,10,25,07,07,-2.80
2012,10,25,07,08,-2.80
2012,10,25,07,09,-2.80
2012,10,25,07,10,-2.80
2012,10,25,07,11,-2.70
2012,10,25,07,12,-2.70
2012,10,25,07,13,-2.70
2012,10,25,07,14,-2.70
2012,10,25,07,15,-2.60
2012,10,25,07,16,-2.60
2012,10,25,07,17,-2.60
2012,10,25,07,18,-2.60
2012,10,25,07,19,-2.60
2012,10,25,07,20,-2.60
2012,10,25,07,21,-2.70
2012,10,25,07,22,-2.70
2012,10,25,07,23,-2.70
2012,10,25,07,24,-2.80
2012,10,25,07,25,-2.80
2012,10,25,07,26,-2.80
2012,10,25,07,27,-2.80
2012,10,25,07,28,-2.90
2012,10,25,07,29,-2.90
2012,10,25,07,30,-2.90
2012,10,25,07,31,-3.00
2012,10,25,07,32,-3.00
2012,10,25,07,33,-3.00
2012,10,25,07,34,-3.00
2012,10,25,07,35,-3.00
2012,10,25,07,36,-3.00
2012,10,25,07,37,-3.00
2012,10,25,07,38,-3.00
2012,10,25,07,39,-3.00
2012,10,25,07,40,-3.10
2012,10,25,07,41,-3.10
2012,10,25,07,42,-3.10
2012,10,25,07,43,-3.20
2012,10,25,07,44,-3.20
2012,10,25,07,45,-3.20
2012,10,25,07,46,-3.30
2012,10,25,07,47,-3.40
2012,10,25,07,48,-3.40
2012,10,25,07,49,-3.50
2012,10,25,07,50,-3.50
2012,10,25,07,51,-3.50
2012,10,25,07,52,-3.50
2012,10,25,07,53,-3.50
2012,10,25,07,54,-3.50
2012,10,25,07,55,-3.50
2012,10,25,07,56,-3.50
2012,10,25,07,57,-3.50
2012,10,25,07,58,-3.50
2012,10,25,07,59,-3.50
2012,10,25,08,00,-3.60
2012,10,25,08,01,-3.50
2012,10,25,08,02,-3.60
2012,10,25,08,03,-3.60
2012,10,25,08,04,-3.60
2012,10,25,08,05,-3.60
2012,10,25,08,06,-3.70
2012,10,25,08,07,-3.70
2012,10,25,08,08,-3.80
2012,10,25,08,09,-3.90
2012,10,25,08,10,-3.90
2012,10,25,08,11,-4.00
2012,10,25,08,12,-4.00
2012,10,25,08,13,-4.10
2012,10,25,08,14,-4.20
2012,10,25,08,15,-4.20
2012,10,25,08,16,-4.30
2012,10,25,08,17,-4.40
2012,10,25,08,18,-4.40
2012,10,25,08,19,-4.40
2012,10,25,08,20,-4.50
2012,10,25,08,21,-4.50
2012,10,25,08,22,-4.50
2012,10,25,08,23,-4.50
2012,10,25,08,24,-4.50
2012,10,25,08,25,-4.50
2012,10,25,08,26,-4.60
2012,10,25,08,27,-4.60
2012,10,25,08,28,-4.60
2012,10,25,08,29,-4.60
2012,10,25,08,30,-4.60
2012,10,25,08,31,-4.60
2012,10,25,08,32,-4.60
2012,10,25,08,33,-4.60
2012,10,25,08,34,-4.60
2012,10,25,08,35,-4.60
2012,10,25,08,36,-4.60
2012,10,25,08,37,-4.60
2012,10,25,08,38,-4.60
2012,10,25,08,39,-4.50
2012,10,25,08,40,-4.50
2012,10,25,08,41,-4.50
2012,10,25,08,42,-4.50
2012,10,25,08,43,-4.50
2012,10,25,08,44,-4.50
2012,10,25,08,45,-4.50
2012,10,25,08,46,-4.40
2012,10,25,08,47,-4.40
2012,10,25,08,48,-4.40
2012,10,25,08,49,-4.30
2012,10,25,08,50,-4.30
2012,10,25,08,51,-4.30
2012,10,25,08,52,-4.30
2012,10,25,08,53,-4.30
2012,10,25,08,54,-4.40
2012,10,25,08,55,-4.40
2012,10,25,08,56,-4.50
2012,10,25,08,57,-4.50
2012,10,25,08,58,-4.50
2012,10,25,08,59,-4.60
2012,10,25,09,00,-4.60
2012,10,25,09,01,-4.60
2012,10,25,09,02,-4.60
2012,10,25,09,03,-4.70
2012,10,25,09,04,-4.80
2012,10,25,09,05,-4.80
2012,10,25,09,06,-4.80
2012,10,25,09,07,-4.80
2012,10,25,09,08,-4.80
2012,10,25,09,09,-4.80
2012,10,25,09,10,-4.80
2012,10,25,09,11,-4.80
2012,10,25,09,12,-4.80
2012,10,25,09,13,-4.80
2012,10,25,09,14,-4.80
2012,10,25,09,15,-4.80
2012,10,25,09,16,-4.80
2012,10,25,09,17,-4.80
2012,10,25,09,18,-4.80
2012,10,25,09,19,-4.80
2012,10,25,09,20,-4.90
2012,10,25,09,21,-4.90
2012,10,25,09,22,-4.90
2012,10,25,09,23,-5.00
2012,10,25,09,24,-5.00
2012,10,25,09,25,-5.00
2012,10,25,09,26,-5.10
2012,10,25,09,27,-5.10
2012,10,25,09,28,-5.10
2012,10,25,09,29,-5.10
2012,10,25,09,30,-5.20
2012,10,25,09,31,-5.20
2012,10,25,09,32,-5.20
2012,10,25,09,33,-5.30
2012,10,25,09,34,-5.30
2012,10,25,09,35,-5.30
2012,10,25,09,36,-5.30
2012,10,25,09,37,-5.40
2012,10,25,09,38,-5.40
2012,10,25,09,39,-5.40
2012,10,25,09,40,-5.40
2012,10,25,09,41,-5.40
2012,10,25,09,42,-5.40
2012,10,25,09,43,-5.40
2012,10,25,09,44,-5.40
2012,10,25,09,45,-5.40
2012,10,25,09,46,-5.40
2012,10,25,09,47,-5.40
2012,10,25,09,48,-5.30
2012,10,25,09,49,-5.30
2012,10,25,09,50,-5.30
2012,10,25,09,51,-5.30
2012,10,25,09,52,-5.30
2012,10,25,09,53,-5.30
2012,10,25,09,54,-5.30
2012,10,25,09,55,-5.30
2012,10,25,09,56,-5.30
2012,10,25,09,57,-5.30
2012,10,25,09,58,-5.30
2012,10,25,09,59,-5.30
2012,10,25,10,00,-5.30
2012,10,25,10,01,-5.30
2012,10,25,10,02,-5.20
2012,10,25,10,03,-5.20
2012,10,25,10,04,-5.20
2012,10,25,10,05,-5.20
2012,10,25,10,06,-5.20
2012,10,25,10,07,-5.10
2012,10,25,10,08,-5.10
2012,10,25,10,09,-5.00
2012,10,25,10,10,-4.90
2012,10,25,10,11,-4.90
2012,10,25,10,12,-4.80
2012,10,25,10,13,-4.70
2012,10,25,10,14,-4.70
2012,10,25,10,15,-4.60
2012,10,25,10,16,-4.50
2012,10,25,10,17,-4.40
2012,10,25,10,18,-4.30
2012,10,25,10,19,-4.20
2012,10,25,10,20,-4.10
2012,10,25,10,21,-4.00
2012,10,25,10,22,-4.00
2012,10,25,10,23,-3.90
2012,10,25,10,24,-3.80
2012,10,25,10,25,-3.80
2012,10,25,10,26,-3.70
2012,10,25,10,27,-3.70
2012,10,25,10,28,-3.60
2012,10,25,10,29,-3.60
2012,10,25,10,30,-3.60
2012,10,25,10,31,-3.50
2012,10,25,10,32,-3.50
2012,10,25,10,33,-3.50
2012,10,25,10,34,-3.50
2012,10,25,10,35,-3.60
2012,10,25,10,36,-3.60
2012,10,25,10,37,-3.70
2012,10,25,10,38,-3.70
2012,10,25,10,39,-3.80
2012,10,25,10,40,-3.80
2012,10,25,10,41,-3.70
2012,10,25,10,42,-3.80
2012,10,25,10,43,-3.70
2012,10,25,10,44,-3.70
2012,10,25,10,45,-3.70
2012,10,25,10,46,-3.70
2012,10,25,10,47,-3.70
2012,10,25,10,48,-3.70
2012,10,25,10,49,-3.70
2012,10,25,10,50,-3.70
2012,10,25,10,51,-3.80
2012,10,25,10,52,-3.90
2012,10,25,10,53,-3.90
2012,10,25,10,54,-3.90
2012,10,25,10,55,-3.90
2012,10,25,10,56,-3.90
2012,10,25,10,57,-3.90
2012,10,25,10,58,-3.90
2012,10,25,10,59,-3.90
2012,10,25,11,00,-3.90
2012,10,25,11,01,-3.80
2012,10,25,11,02,-3.80
2012,10,25,11,03,-3.80
2012,10,25,11,04,-3.80
2012,10,25,11,05,-3.80
2012,10,25,11,06,-3.80
2012,10,25,11,07,-3.70
2012,10,25,11,08,-3.70
2012,10,25,11,09,-3.70
2012,10,25,11,10,-3.70
2012,10,25,11,11,-3.70
2012,10,25,11,12,-3.70
2012,10,25,11,13,-3.70
2012,10,25,11,14,-3.60
2012,10,25,11,15,-3.60
2012,10,25,11,16,-3.60
2012,10,25,11,17,-3.60
2012,10,25,11,18,-3.60
2012,10,25,11,19,-3.50
2012,10,25,11,20,-3.50
2012,10,25,11,21,-3.40
2012,10,25,11,22,-3.40
2012,10,25,11,23,-3.30
2012,10,25,11,24,-3.30
2012,10,25,11,25,-3.30
2012,10,25,11,26,-3.40
2012,10,25,11,27,-3.40
2012,10,25,11,28,-3.50
2012,10,25,11,29,-3.50
2012,10,25,11,30,-3.50
2012,10,25,11,31,-3.50
2012,10,25,11,32,-3.50
2012,10,25,11,33,-3.50
2012,10,25,11,34,-3.50
2012,10,25,11,35,-3.50
2012,10,25,11,36,-3.40
2012,10,25,11,37,-3.40
2012,10,25,11,38,-3.40
2012,10,25,11,39,-3.40
2012,10,25,11,40,-3.40
2012,10,25,11,41,-3.40
2012,10,25,11,42,-3.40
2012,10,25,11,43,-3.40
2012,10,25,11,44,-3.40
2012,10,25,11,45,-3.40
2012,10,25,11,46,-3.40
2012,10,25,11,47,-3.40
2012,10,25,11,48,-3.40
2012,10,25,11,49,-3.40
2012,10,25,11,50,-3.40
2012,10,25,11,51,-3.40
2012,10,25,11,52,-3.40
2012,10,25,11,53,-3.40
2012,10,25,11,54,-3.40
2012,10,25,11,55,-3.40
2012,10,25,11,56,-3.40
2012,10,25,11,57,-3.40
2012,10,25,11,58,-3.40
2012,10,25,11,59,-3.30
2012,10,25,12,00,-3.30
2012,10,25,12,01,-3.20
2012,10,25,12,02,-3.20
2012,10,25,12,03,-3.10
2012,10,25,12,04,-3.10
2012,10,25,12,05,-3.10
2012,10,25,12,06,-3.00
2012,10,25,12,07,-3.00
2012,10,25,12,08,-2.90
2012,10,25,12,09,-2.90
2012,10,25,12,10,-2.90
2012,10,25,12,11,-2.90
2012,10,25,12,12,-2.80
2012,10,25,12,13,-2.90
2012,10,25,12,14,-2.90
2012,10,25,12,15,-2.90
2012,10,25,12,16,-2.90
2012,10,25,12,17,-3.00
2012,10,25,12,18,-3.00
2012,10,25,12,19,-3.10
2012,10,25,12,20,-3.20
2012,10,25,12,21,-3.30
2012,10,25,12,22,-3.30
2012,10,25,12,23,-3.40
2012,10,25,12,24,-3.50
2012,10,25,12,25,-3.50
2012,10,25,12,26,-3.50
2012,10,25,12,27,-3.50
2012,10,25,12,28,-3.50
2012,10,25,12,29,-3.50
2012,10,25,12,30,-3.60
2012,10,25,12,31,-3.60
2012,10,25,12,32,-3.60
2012,10,25,12,33,-3.60
2012,10,25,12,34,-3.60
2012,10,25,12,35,-3.50
2012,10,25,12,36,-3.50
2012,10,25,12,37,-3.50
2012,10,25,12,38,-3.40
2012,10,25,12,39,-3.50
2012,10,25,12,40,-3.40
2012,10,25,12,41,-3.40
2012,10,25,12,42,-3.40
2012,10,25,12,43,-3.40
2012,10,25,12,44,-3.40
2012,10,25,12,45,-3.40
2012,10,25,12,46,-3.40
2012,10,25,12,47,-3.40
2012,10,25,12,48,-3.40
2012,10,25,12,49,-3.40
2012,10,25,12,50,-3.40
2012,10,25,12,51,-3.40
2012,10,25,12,52,-3.40
2012,10,25,12,53,-3.40
2012,10,25,12,59,-2.90
2012,10,25,13,00,-2.80
2012,10,25,13,01,-2.80
2012,10,25,13,02,-2.70
2012,10,25,13,03,-2.60
2012,10,25,13,04,-2.50
2012,10,25,13,05,-2.40
2012,10,25,13,06,-2.30
2012,10,25,13,07,-2.20
2012,10,25,13,08,-2.10
2012,10,25,13,09,-2.00
2012,10,25,13,10,-1.90
2012,10,25,13,11,-1.90
2012,10,25,13,12,-1.80
2012,10,25,13,13,-1.70
2012,10,25,13,14,-1.60
2012,10,25,13,15,-1.40
2012,10,25,13,16,-1.30
2012,10,25,13,17,-1.20
2012,10,25,13,18,-1.10
2012,10,25,13,19,-1.00
2012,10,25,13,20,-1.00
2012,10,25,13,21,-1.00
2012,10,25,13,22,-0.90
2012,10,25,13,23,-0.90
2012,10,25,13,24,-0.90
2012,10,25,13,25,-0.80
2012,10,25,13,26,-0.80
2012,10,25,13,27,-0.70
2012,10,25,13,28,-0.70
2012,10,25,13,29,-0.60
2012,10,25,13,30,-0.50
2012,10,25,13,31,-0.40
2012,10,25,13,32,-0.30
2012,10,25,13,33,-0.30
2012,10,25,13,34,-0.30
2012,10,25,13,35,-0.20
2012,10,25,13,36,-0.20
2012,10,25,13,37,-0.10
2012,10,25,13,38,-3.90
2012,10,25,13,39,-14.40
2012,10,25,13,40,-17.70
2012,10,25,13,41,-17.70
2012,10,25,13,42,-17.60
2012,10,25,13,43,-17.60
2012,10,25,13,44,-17.50
2012,10,25,13,45,-17.50
2012,10,25,13,46,-17.50
2012,10,25,13,47,-17.40
2012,10,25,13,48,-17.40
2012,10,25,13,49,-17.40
2012,10,25,13,50,-17.30
2012,10,25,13,51,-17.30
2012,10,25,13,52,-17.30
2012,10,25,13,53,-17.30
2012,10,25,13,54,-17.30
2012,10,25,13,55,-17.20
2012,10,25,13,56,-17.20
2012,10,25,13,57,-17.20
2012,10,25,13,58,-17.20
2012,10,25,13,59,-17.20
2012,10,25,14,00,-17.20
2012,10,25,14,01,-17.10
2012,10,25,14,02,-17.10
2012,10,25,14,03,-17.10
2012,10,25,14,04,-17.10
2012,10,25,14,05,-17.10
2012,10,25,14,06,-17.10
2012,10,25,14,07,-17.10
2012,10,25,14,08,-17.10
2012,10,25,14,09,-17.10
2012,10,25,14,10,-17.10
2012,10,25,14,11,-17.20
2012,10,25,14,12,-17.20
2012,10,25,14,13,-17.20
2012,10,25,14,14,-17.20
2012,10,25,14,15,-17.20
2012,10,25,14,16,-17.20
2012,10,25,14,17,-17.20
2012,10,25,14,18,-17.20
2012,10,25,14,19,-17.20
2012,10,25,14,20,-17.20
2012,10,25,14,21,-17.20
2012,10,25,14,22,-17.20
2012,10,25,14,23,-17.20
2012,10,25,14,24,-17.10
2012,10,25,14,25,-17.10
2012,10,25,14,26,-17.10
2012,10,25,14,27,-17.00
2012,10,25,14,28,-17.00
2012,10,25,14,29,-17.00
2012,10,25,14,30,-17.00
2012,10,25,14,31,-16.90
2012,10,25,14,32,-16.90
2012,10,25,14,33,-16.90
2012,10,25,14,34,-16.90
2012,10,25,14,35,-16.90
2012,10,25,14,36,-16.90
2012,10,25,14,37,-16.90
2012,10,25,14,38,-16.90
2012,10,25,14,39,-16.90
2012,10,25,14,40,-16.80
2012,10,25,14,41,-16.80
2012,10,25,14,42,-16.80
2012,10,25,14,43,-16.80
2012,10,25,14,44,-16.70
2012,10,25,14,45,-16.70
2012,10,25,14,46,-16.70
2012,10,25,14,47,-16.70
2012,10,25,14,48,-16.70
2012,10,25,14,49,-16.70
2012,10,25,14,50,-16.70
2012,10,25,14,51,-16.70
2012,10,25,14,52,-16.70
2012,10,25,14,53,-16.70
2012,10,25,14,54,-16.60
2012,10,25,14,55,-16.60
2012,10,25,14,56,-16.60
2012,10,25,14,57,-16.50
2012,10,25,14,58,-16.50
2012,10,25,14,59,-16.50
2012,10,25,15,00,-16.40
2012,10,25,15,01,-16.40
2012,10,25,15,02,-16.30
2012,10,25,15,03,-16.30
2012,10,25,15,04,-16.30
2012,10,25,15,05,-16.20
2012,10,25,15,06,-16.20
2012,10,25,15,07,-16.20
2012,10,25,15,08,-16.20
2012,10,25,15,09,-16.20
2012,10,25,15,10,-16.10
2012,10,25,15,11,-16.10
2012,10,25,15,12,-16.10
2012,10,25,15,13,-16.10
2012,10,25,15,14,-16.00
2012,10,25,15,15,-16.00
2012,10,25,15,16,-15.90
2012,10,25,15,17,-15.90
2012,10,25,15,18,-15.90
2012,10,25,15,19,-15.90
2012,10,25,15,20,-15.90
2012,10,25,15,21,-15.80
2012,10,25,15,22,-15.80
2012,10,25,15,23,-15.80
2012,10,25,15,24,-15.80
2012,10,25,15,25,-15.80
2012,10,25,15,26,-15.80
2012,10,25,15,27,-15.70
2012,10,25,15,28,-15.70
2012,10,25,15,29,-15.70
2012,10,25,15,30,-15.70
2012,10,25,15,31,-15.60
2012,10,25,15,32,-15.60
2012,10,25,15,33,-15.60
2012,10,25,15,34,-15.50
2012,10,25,15,35,-15.50
2012,10,25,15,36,-15.50
2012,10,25,15,37,-15.40
2012,10,25,15,38,-15.40
2012,10,25,15,39,-15.40
2012,10,25,15,40,-15.30
2012,10,25,15,41,-15.30
2012,10,25,15,42,-15.30
2012,10,25,15,43,-15.20
2012,10,25,15,44,-15.20
2012,10,25,15,45,-15.20
2012,10,25,15,46,-15.10
2012,10,25,15,47,-15.10
2012,10,25,15,48,-15.10
2012,10,25,15,49,-15.10
2012,10,25,15,50,-15.00
2012,10,25,15,51,-15.00
2012,10,25,15,52,-15.00
2012,10,25,15,53,-14.90
2012,10,25,15,54,-14.90
2012,10,25,15,55,-14.90
2012,10,25,15,56,-14.80
2012,10,25,15,57,-14.80
2012,10,25,15,58,-14.80
2012,10,25,15,59,-14.70
2012,10,25,16,00,-14.70
2012,10,25,16,01,-14.70
2012,10,25,16,02,-14.70
2012,10,25,16,03,-14.70
2012,10,25,16,04,-14.60
2012,10,25,16,05,-14.60
2012,10,25,16,06,-14.60
2012,10,25,16,07,-14.60
2012,10,25,16,08,-14.60
2012,10,25,16,09,-14.60
2012,10,25,16,10,-14.60
2012,10,25,16,11,-14.60
2012,10,25,16,12,-14.60
2012,10,25,16,13,-14.60
2012,10,25,16,14,-14.70
2012,10,25,16,15,-14.70
2012,10,25,16,16,-14.70
2012,10,25,16,17,-14.70
2012,10,25,16,18,-14.70
2012,10,25,16,19,-14.80
2012,10,25,16,20,-14.80
2012,10,25,16,21,-14.80
2012,10,25,16,22,-14.80
2012,10,25,16,23,-14.80
2012,10,25,16,24,-14.80
2012,10,25,16,25,-14.80
2012,10,25,16,26,-14.80
2012,10,25,16,27,-14.80
2012,10,25,16,28,-14.80
2012,10,25,16,29,-14.80
2012,10,25,16,30,-14.80
2012,10,25,16,31,-14.80
2012,10,25,16,32,-14.80
2012,10,25,16,33,-14.80
2012,10,25,16,34,-14.80
2012,10,25,16,35,-14.80
2012,10,25,16,36,-14.80
2012,10,25,16,37,-14.80
2012,10,25,16,38,-14.80
2012,10,25,16,39,-14.80
2012,10,25,16,40,-14.80
2012,10,25,16,41,-14.80
2012,10,25,16,42,-14.80
2012,10,25,16,43,-14.80
2012,10,25,16,44,-14.80
2012,10,25,16,45,-14.80
2012,10,25,16,46,-14.80
2012,10,25,16,47,-14.80
2012,10,25,16,48,-14.80
2012,10,25,16,49,-14.80
2012,10,25,16,50,-14.80
2012,10,25,16,51,-14.80
2012,10,25,16,52,-14.80
2012,10,25,16,53,-14.80
2012,10,25,16,54,-14.80
2012,10,25,16,55,-14.80
2012,10,25,16,56,-14.80
2012,10,25,16,57,-14.80
2012,10,25,16,58,-14.80
2012,10,25,16,59,-14.80
2012,10,25,17,00,-14.80
2012,10,25,17,01,-14.80
2012,10,25,17,02,-14.80
2012,10,25,17,03,-14.80
2012,10,25,17,04,-14.80
2012,10,25,17,05,-14.80
2012,10,25,17,06,-14.80
2012,10,25,17,07,-14.90
2012,10,25,17,08,-14.90
2012,10,25,17,09,-14.90
2012,10,25,17,10,-14.90
2012,10,25,17,11,-14.90
2012,10,25,17,12,-14.90
2012,10,25,17,13,-14.80
2012,10,25,17,14,-14.80
2012,10,25,17,15,-14.80